[[{"header":{"parameterUnit":"m.s-1","parameterCategory":1,"la1":30.2991,"la2":30.254,"lo1":-89.0895,"lo2":-89.0444,"dy":0.0017,"dx":0.0017,"nx":28,"ny":28,"refTime":"2025-08-30T03:00:00:Z","depth":0,"parameterNumber":2,"parameterNumberName":"U-component_of_WINDS"},"data":[0,0,0,0,0,0,0,0,0,0,0,0,0,0,0,0,0,0,0,0,0,0,0,0,0,0,0,0,0,0,0,0,0,0,0,0,0,0,0,0,0,0,0,0,0,0,0,0,0,0,0,0,0,0,0,0,0,0,2.1788,2.179,0,2.1905,2.1907,2.1908,2.1939,2.1938,2.1937,2.1937,2.2056,2.2059,2.2063,0,0,0,0,0,0,0,0,0,0,0,0,0,2.1593,2.1596,2.1788,2.179,2.1791,2.1905,2.1907,2.1908,2.1939,2.1938,2.1937,2.1936,2.2055,2.2059,2.2064,0,0,0,0,0,0,0,0,0,0,0,0,0,2.1691,2.1598,2.1788,2.182,2.1824,2.1905,2.1907,2.1909,2.1939,2.1938,2.1937,2.1936,2.2053,2.2059,2.2064,2.2121,0,0,2.2082,2.2084,0,0,0,0,0,0,0,0,2.1685,2.1698,2.1814,2.1818,2.1823,2.1906,2.1881,2.198,2.1939,2.1895,2.1937,2.1935,2.2007,2.2016,2.2041,2.2126,2.2132,2.2082,2.2086,2.2088,2.209,0,0,0,0,0,0,0,2.1678,2.1693,2.1835,2.1816,2.1821,2.1829,2.1842,2.19,2.1956,2.1899,2.1902,2.1915,2.2009,2.2035,2.2044,2.2133,2.2082,2.2087,2.2091,2.2093,2.2273,2.2275,0,0,0,0,0,0,2.1666,2.1687,2.1831,2.1838,2.175,2.1834,2.1848,2.1881,2.1955,2.1965,2.1916,2.1916,2.2026,2.2037,2.2048,2.212,2.2088,2.2094,2.2097,2.2272,2.2274,2.2275,0,0,0,0,0,0,2.1661,2.1678,2.1826,2.1763,2.1783,2.1838,2.1875,2.1883,2.1909,2.1968,2.1978,2.1932,2.2025,2.204,2.2103,2.2124,2.2096,2.2101,2.227,2.2272,2.2274,2.2263,0,0,0,0,0,0,2.1656,2.1677,2.1698,2.1764,2.1786,2.1879,2.1876,2.1886,2.1919,2.1921,2.1986,2.1995,2.2026,2.2094,2.2109,2.2132,2.2106,2.2269,2.2271,2.2274,2.2262,2.2265,2.2267,0,0,0,0,0,2.1649,2.169,2.1699,2.1716,2.1814,2.188,2.1893,2.1927,2.1921,2.1943,2.1981,2.1993,2.212,2.21,2.2117,2.2142,2.2267,2.2271,2.2274,2.2261,2.2264,2.2267,0,0,0,0,0,0,2.1625,2.1699,2.171,2.1774,2.182,2.1885,2.1914,2.1929,2.1978,2.1977,2.2018,2.2032,2.2092,2.2124,2.2101,2.2202,2.2194,2.22,2.2178,2.2182,2.2185,2.2175,2.2111,0,0,0,0,0,2.1627,2.1674,2.1737,2.1787,2.181,2.1858,2.1888,2.191,2.196,2.198,2.2022,2.207,2.2121,2.2154,2.2204,2.2267,2.2282,2.2293,2.2295,2.2297,2.2302,2.2339,2.2345,2.2285,2.2285,2.2285,0,0,2.1632,2.1678,2.1705,2.1783,2.1822,2.187,2.1874,2.1924,2.1961,2.1987,2.205,2.2083,2.2139,2.2203,2.2233,2.2231,2.2322,2.2301,2.2302,2.2306,2.2343,2.2348,2.2353,2.2287,2.2287,2.2286,0,0,2.1665,2.1705,2.1751,2.1791,2.185,2.1882,2.1893,2.1957,2.198,2.2043,2.2064,2.2109,2.2195,2.2235,2.2266,2.2317,2.2331,2.2333,2.2345,2.2381,2.2386,2.239,2.2408,2.2414,2.2337,2.2337,2.2337,0,2.1663,2.1737,2.1773,2.1823,2.1857,2.1885,2.1933,2.1969,2.2041,2.2064,2.2061,2.2171,2.2211,2.2285,2.2298,2.2323,2.2337,2.2325,2.2382,2.2387,2.2391,2.2409,2.2416,2.2337,2.2337,2.2337,2.2337,0,2.1732,2.1783,2.1813,2.1883,2.1921,2.1969,2.2014,2.2048,2.2068,2.2101,2.2166,2.2215,2.2276,2.2296,2.2315,2.2373,2.237,2.2374,2.2367,2.2396,2.2414,2.2421,2.2337,2.2337,2.2337,2.2337,0,0,2.1751,2.1842,2.1853,2.1885,2.1954,2.1994,2.2045,2.2105,2.2133,2.2183,2.2227,2.2301,2.2305,2.2341,2.2366,2.2397,2.2435,2.2398,2.24,2.2403,2.2503,2.2499,2.2506,2.2445,2.2447,2.2448,2.2498,0,2.1792,2.1883,2.1919,2.1993,2.2041,2.207,2.2114,2.2161,2.2194,2.224,2.2276,2.2328,2.233,2.2352,2.2384,2.2424,2.2456,2.2421,2.2486,2.2488,2.247,2.2515,2.2511,2.2556,2.2505,2.2506,2.2507,0,2.1852,2.1903,2.1982,2.2046,2.2068,2.2107,2.2166,2.2209,2.2264,2.2286,2.2327,2.235,2.2405,2.2396,2.2473,2.2448,2.2478,2.2502,2.2504,2.2511,2.2498,2.2522,2.2571,2.2577,2.2519,2.2518,2.2517,0,2.1858,2.1947,2.2006,2.2033,2.2109,2.2136,2.2169,2.2223,2.2258,2.2309,2.2332,2.239,2.2421,2.2466,2.2504,2.2494,2.2578,2.2572,2.2598,2.2597,2.2613,2.2611,2.2665,2.2633,2.2633,2.2633,2.2633,0,2.19,2.1947,2.2009,2.2045,2.21,2.2142,2.2194,2.2229,2.2278,2.2322,2.235,2.2391,2.244,2.2488,2.2519,2.2578,2.2592,2.2611,2.2619,2.2608,2.2606,2.2627,2.2625,2.2635,2.2634,2.2634,2.2633,0,2.1914,2.1958,2.2024,2.2092,2.211,2.2147,2.2206,2.2242,2.2277,2.2333,2.2348,2.2403,2.2461,2.2505,2.2579,2.26,2.2663,2.2671,2.2644,2.2648,2.2671,2.2668,2.2741,2.2753,2.2713,2.2713,2.2713,0,2.1937,2.1975,2.2047,2.2079,2.2112,2.2162,2.2198,2.2242,2.2278,2.2344,2.2373,2.2433,2.2483,2.2574,2.262,2.2678,2.2688,2.2709,2.2696,2.2685,2.2688,2.2685,2.2689,2.271,2.2711,2.2711,2.2711,0,2.1974,2.1995,2.2045,2.2104,2.2146,2.2194,2.2242,2.2267,2.2319,2.2359,2.2418,2.2457,2.2534,2.2593,2.2656,2.2691,2.271,2.2715,2.2724,2.2713,2.2696,2.2705,2.2648,2.2713,2.2712,2.2712,2.2712,2.2712,2.1994,2.2029,2.2085,2.2141,2.2183,2.2228,2.2266,2.2307,2.2357,2.2423,2.2446,2.2508,2.2564,2.265,2.2686,2.2735,2.2735,2.2748,2.2751,2.2754,2.2753,2.2689,2.2747,2.2747,2.2747,2.2747,2.2747,0,2.2032,2.207,2.2121,2.2189,2.2233,2.2248,2.2303,2.2339,2.2393,2.2444,2.2493,2.2562,2.262,2.2673,2.2734,2.2763,2.2773,2.2777,2.2775,2.2783,2.2749,2.2735,2.2768,2.2768,2.2768,2.2768,2.2768,2.2768,2.2056,2.2116,2.2144,2.2225,2.2264,2.2324,2.2355,2.2397,2.2438,2.2514,2.2563,2.2597,2.2649,2.2714,2.2768,2.2782,2.2803,2.2805,2.2821,2.2788,2.2785,2.2783,2.277,2.2809,2.2809,2.2851,2.2851,2.2852]},{"header":{"parameterUnit":"m.s-1","parameterCategory":1,"la1":30.2991,"la2":30.254,"lo1":-89.0895,"lo2":-89.0444,"dy":0.0017,"dx":0.0017,"nx":28,"ny":28,"refTime":"2025-08-30T03:00:00:Z","depth":0,"parameterNumber":3,"parameterNumberName":"V-component_of_WINDS"},"data":[0,0,0,0,0,0,0,0,0,0,0,0,0,0,0,0,0,0,0,0,0,0,0,0,0,0,0,0,0,0,0,0,0,0,0,0,0,0,0,0,0,0,0,0,0,0,0,0,0,0,0,0,0,0,0,0,0,0,-3.2997,-3.2997,0,-3.3045,-3.3046,-3.3046,-3.3045,-3.3044,-3.3043,-3.3043,-3.3089,-3.309,-3.3092,0,0,0,0,0,0,0,0,0,0,0,0,0,-3.29,-3.2902,-3.2996,-3.2997,-3.2998,-3.3045,-3.3046,-3.3046,-3.3045,-3.3044,-3.3043,-3.3042,-3.3088,-3.309,-3.3092,0,0,0,0,0,0,0,0,0,0,0,0,0,-3.2944,-3.2902,-3.2996,-3.3003,-3.3004,-3.3045,-3.3046,-3.3047,-3.3045,-3.3044,-3.3043,-3.3042,-3.3087,-3.309,-3.3093,-3.3129,0,0,-3.3101,-3.3102,0,0,0,0,0,0,0,0,-3.2942,-3.2948,-3.3001,-3.3002,-3.3004,-3.3038,-3.3028,-3.3074,-3.3045,-3.3029,-3.3043,-3.3042,-3.3072,-3.3076,-3.3087,-3.3132,-3.3134,-3.3101,-3.3103,-3.3104,-3.3105,0,0,0,0,0,0,0,-3.2939,-3.2946,-3.3016,-3.3002,-3.3003,-3.3002,-3.3008,-3.3037,-3.3055,-3.303,-3.3031,-3.3037,-3.3073,-3.3085,-3.3088,-3.3134,-3.3101,-3.3104,-3.3105,-3.3106,-3.3213,-3.3215,0,0,0,0,0,0,-3.2935,-3.2943,-3.3014,-3.3017,-3.297,-3.3005,-3.3011,-3.3028,-3.3055,-3.3059,-3.3037,-3.3036,-3.308,-3.3085,-3.309,-3.3137,-3.3104,-3.3107,-3.3108,-3.3212,-3.3214,-3.3215,0,0,0,0,0,0,-3.2933,-3.2941,-3.3012,-3.298,-3.2989,-3.3008,-3.3027,-3.3029,-3.3041,-3.306,-3.3063,-3.3046,-3.308,-3.3086,-3.312,-3.3138,-3.3108,-3.311,-3.3211,-3.3213,-3.3214,-3.3229,0,0,0,0,0,0,-3.293,-3.294,-3.2955,-3.2981,-3.2991,-3.3043,-3.3028,-3.3031,-3.3047,-3.3046,-3.307,-3.3073,-3.308,-3.3116,-3.3123,-3.3142,-3.3113,-3.3209,-3.3212,-3.3214,-3.3227,-3.3232,-3.3235,0,0,0,0,0,-3.2927,-3.2956,-3.2956,-3.2964,-3.301,-3.3044,-3.3049,-3.3058,-3.3048,-3.3063,-3.3075,-3.3072,-3.3135,-3.312,-3.3128,-3.3147,-3.3208,-3.3211,-3.3214,-3.3226,-3.3231,-3.3235,0,0,0,0,0,0,-3.293,-3.2959,-3.2959,-3.2998,-3.3019,-3.3043,-3.3062,-3.3062,-3.3085,-3.3083,-3.3091,-3.3097,-3.3131,-3.3142,-3.3125,-3.3185,-3.317,-3.3175,-3.3177,-3.3182,-3.3186,-3.3183,-3.3115,0,0,0,0,0,-3.2936,-3.2962,-3.2985,-3.3017,-3.3028,-3.3043,-3.3058,-3.3063,-3.3084,-3.3092,-3.3107,-3.3127,-3.3151,-3.3167,-3.319,-3.3229,-3.3235,-3.3246,-3.325,-3.3253,-3.3257,-3.328,-3.3286,-3.3224,-3.3224,-3.3224,0,0,-3.2947,-3.2966,-3.2981,-3.3018,-3.3035,-3.3061,-3.305,-3.3078,-3.3098,-3.3096,-3.313,-3.3142,-3.3164,-3.3202,-3.3219,-3.3212,-3.3275,-3.3256,-3.3259,-3.3261,-3.3283,-3.3289,-3.3294,-3.3226,-3.3225,-3.3225,0,0,-3.2981,-3.2998,-3.3028,-3.3045,-3.3071,-3.3081,-3.3088,-3.3113,-3.3122,-3.3157,-3.3157,-3.3179,-3.3221,-3.3238,-3.3251,-3.3294,-3.3293,-3.3301,-3.3322,-3.3344,-3.3349,-3.3353,-3.337,-3.3376,-3.3305,-3.3305,-3.3305,0,-3.2991,-3.3032,-3.3042,-3.3071,-3.3088,-3.309,-3.312,-3.3135,-3.3167,-3.3178,-3.317,-3.3224,-3.3239,-3.3281,-3.3292,-3.3303,-3.3311,-3.3299,-3.3348,-3.3352,-3.3356,-3.3373,-3.3379,-3.3306,-3.3306,-3.3306,-3.3306,0,-3.3045,-3.3073,-3.3094,-3.3127,-3.3146,-3.3175,-3.3189,-3.3207,-3.321,-3.3221,-3.3258,-3.3276,-3.3304,-3.3314,-3.3317,-3.3357,-3.3353,-3.3346,-3.3331,-3.3363,-3.3379,-3.3385,-3.3308,-3.3307,-3.3307,-3.3307,0,0,-3.3082,-3.3122,-3.3129,-3.3145,-3.3175,-3.3197,-3.3226,-3.3255,-3.3271,-3.3293,-3.3318,-3.3355,-3.335,-3.3365,-3.337,-3.339,-3.3425,-3.3381,-3.3381,-3.339,-3.3473,-3.3478,-3.3485,-3.3424,-3.3425,-3.3426,-3.3471,0,-3.3121,-3.3175,-3.3186,-3.3233,-3.326,-3.3263,-3.3289,-3.3309,-3.3321,-3.3345,-3.3357,-3.3383,-3.3374,-3.3384,-3.3403,-3.3416,-3.3442,-3.3413,-3.3448,-3.3449,-3.3444,-3.3493,-3.3499,-3.3541,-3.3477,-3.3478,-3.3479,0,-3.3173,-3.3199,-3.325,-3.3278,-3.329,-3.3313,-3.3342,-3.3365,-3.3388,-3.3395,-3.3414,-3.3417,-3.3448,-3.3432,-3.3475,-3.3455,-3.347,-3.3479,-3.3481,-3.3485,-3.3467,-3.35,-3.3554,-3.3561,-3.3488,-3.3487,-3.3487,0,-3.3198,-3.3245,-3.3282,-3.3295,-3.3328,-3.3345,-3.3359,-3.3382,-3.34,-3.3424,-3.3436,-3.3463,-3.3478,-3.3499,-3.3509,-3.3496,-3.3552,-3.3536,-3.3559,-3.3559,-3.3572,-3.3571,-3.363,-3.3579,-3.3579,-3.3579,-3.3579,0,-3.3241,-3.3272,-3.3294,-3.3317,-3.3352,-3.3364,-3.3398,-3.3412,-3.3432,-3.3458,-3.346,-3.3484,-3.3496,-3.3521,-3.3529,-3.3564,-3.357,-3.3577,-3.3579,-3.3578,-3.3577,-3.3588,-3.3586,-3.358,-3.358,-3.358,-3.3579,0,-3.3274,-3.329,-3.3331,-3.336,-3.3368,-3.3393,-3.3417,-3.3439,-3.3451,-3.3484,-3.3492,-3.351,-3.354,-3.3553,-3.3589,-3.3594,-3.3635,-3.3634,-3.3628,-3.3629,-3.3652,-3.365,-3.3722,-3.3732,-3.3672,-3.3673,-3.3673,0,-3.3302,-3.3326,-3.3359,-3.3377,-3.3392,-3.3421,-3.344,-3.3452,-3.3471,-3.3502,-3.352,-3.3551,-3.3576,-3.3624,-3.364,-3.3668,-3.3669,-3.3692,-3.3673,-3.3671,-3.3671,-3.367,-3.3673,-3.3695,-3.3696,-3.3696,-3.3697,0,-3.3349,-3.3356,-3.3384,-3.3415,-3.3438,-3.3463,-3.3487,-3.3501,-3.3517,-3.3538,-3.3571,-3.359,-3.3629,-3.3659,-3.3689,-3.3702,-3.3703,-3.3703,-3.371,-3.3709,-3.3706,-3.371,-3.3639,-3.3701,-3.3701,-3.37,-3.37,-3.37,-3.3381,-3.3404,-3.3431,-3.3463,-3.3483,-3.3505,-3.3529,-3.3545,-3.3572,-3.3605,-3.361,-3.3645,-3.3669,-3.3709,-3.3724,-3.3751,-3.3745,-3.3755,-3.3758,-3.376,-3.3763,-3.3701,-3.3756,-3.3756,-3.3756,-3.3756,-3.3756,0,-3.343,-3.3448,-3.3477,-3.3512,-3.3537,-3.3536,-3.3563,-3.3584,-3.3615,-3.3638,-3.3664,-3.3701,-3.3731,-3.3751,-3.3781,-3.3799,-3.38,-3.3806,-3.3806,-3.3809,-3.3765,-3.3757,-3.3805,-3.3805,-3.3805,-3.3805,-3.3805,-3.3805,-3.3458,-3.3498,-3.3509,-3.3558,-3.3576,-3.3611,-3.3627,-3.3648,-3.3667,-3.3709,-3.3735,-3.3748,-3.377,-3.3802,-3.383,-3.3835,-3.3846,-3.3854,-3.3858,-3.3817,-3.3812,-3.3807,-3.38,-3.3856,-3.3856,-3.39,-3.3901,-3.3901]}]]